KC4KQE Weather Reports


Display with metric or nautical units.
time (UTC)temp
F
wind
direction
speed
MPH
gust
MPH
rain 1hr
in
rain 24hr
in
rain mn
in
humidity
%
barometer
mb
20260506220416 81 110 2.0 8.0 0.00 0.00 0.00 19 1013.8
20260506215916 80 110 2.0 13.0 0.00 0.00 0.00 20 1013.9
20260506215416 80 110 3.0 9.0 0.00 0.00 0.00 20 1013.9
20260506214916 81 110 8.0 14.0 0.00 0.00 0.00 19 1014.0
20260506214417 81 110 11.0 14.0 0.00 0.00 0.00 19 1014.0
20260506213916 80 110 2.0 10.0 0.00 0.00 0.00 20 1014.1
20260506213416 81 110 7.0 12.0 0.00 0.00 0.00 19 1014.3
20260506212916 81 110 9.0 14.0 0.00 0.00 0.00 20 1014.3
20260506212416 80 110 7.0 11.0 0.00 0.00 0.00 20 1014.3
20260506211916 80 110 7.0 11.0 0.00 0.00 0.00 20 1014.4
20260506211416 79 110 10.0 12.0 0.00 0.00 0.00 21 1014.4
20260506210916 79 110 10.0 12.0 0.00 0.00 0.00 21 1014.5
20260506210416 79 110 1.0 8.0 0.00 0.00 0.00 20 1014.5
20260506205916 81 110 4.0 12.0 0.00 0.00 0.00 20 1014.7
20260506205416 81 110 5.0 11.0 0.00 0.00 0.00 19 1014.8
20260506204916 80 110 1.0 10.0 0.00 0.00 0.00 20 1014.8
20260506204416 79 110 5.0 10.0 0.00 0.00 0.00 21 1014.9
20260506203916 79 110 7.0 9.0 0.00 0.00 0.00 21 1015.0
20260506203416 80 110 4.0 12.0 0.00 0.00 0.00 21 1015.0
20260506202918 80 110 9.0 14.0 0.00 0.00 0.00 21 1015.0
20260506202416 78 110 3.0 5.0 0.00 0.00 0.00 23 1015.1
20260506201916 77 110 5.0 7.0 0.00 0.00 0.00 21 1015.1
20260506201416 79 110 0.0 9.0 0.00 0.00 0.00 21 1015.2
20260506200916 80 110 3.0 13.0 0.00 0.00 0.00 21 1015.2
20260506200416 77 110 5.0 7.0 0.00 0.00 0.00 24 1015.2
20260506195917 77 110 0.0 7.0 0.00 0.00 0.00 23 1015.3
20260506195417 77 110 1.0 12.0 0.00 0.00 0.00 23 1015.4
20260506194916 79 110 4.0 13.0 0.00 0.00 0.00 22 1015.3
20260506194417 77 110 10.0 12.0 0.00 0.00 0.00 23 1015.3
20260506193917 77 110 11.0 13.0 0.00 0.00 0.00 23 1015.4
20260506193416 76 110 7.0 16.0 0.00 0.00 0.00 24 1015.4
20260506192916 77 110 11.0 13.0 0.00 0.00 0.00 25 1015.4
20260506192416 76 110 2.0 7.0 0.00 0.00 0.00 24 1015.5
20260506191916 76 110 2.0 11.0 0.00 0.00 0.00 24 1015.6
20260506191416 77 110 8.0 14.0 0.00 0.00 0.00 24 1015.7
20260506190916 78 110 7.0 14.0 0.00 0.00 0.00 24 1015.7
20260506190417 76 110 5.0 9.0 0.00 0.00 0.00 26 1015.7
20260506185916 75 110 4.0 11.0 0.00 0.00 0.00 26 1015.8
20260506185416 76 110 2.0 8.0 0.00 0.00 0.00 25 1015.9
20260506184916 76 110 8.0 10.0 0.00 0.00 0.00 26 1015.9
20260506184416 75 110 5.0 14.0 0.00 0.00 0.00 26 1016.0
20260506183917 75 110 4.0 7.0 0.00 0.00 0.00 27 1016.1
20260506183416 76 110 5.0 10.0 0.00 0.00 0.00 26 1016.2
20260506182916 74 110 4.0 4.0 0.00 0.00 0.00 27 1016.2
20260506182416 75 110 3.0 12.0 0.00 0.00 0.00 26 1016.3
20260506181916 75 110 10.0 12.0 0.00 0.00 0.00 26 1016.3
20260506181416 75 110 7.0 12.0 0.00 0.00 0.00 27 1016.3
20260506180917 74 110 4.0 9.0 0.00 0.00 0.00 28 1016.4
20260506180416 73 110 0.0 10.0 0.00 0.00 0.00 28 1016.4
20260506175916 72 110 3.0 5.0 0.00 0.00 0.00 28 1016.4
20260506175417 74 110 4.0 8.0 0.00 0.00 0.00 27 1016.5
20260506174917 72 110 2.0 7.0 0.00 0.00 0.00 29 1016.5
20260506174416 73 110 1.0 11.0 0.00 0.00 0.00 27 1016.6
20260506173916 73 110 7.0 8.0 0.00 0.00 0.00 29 1016.5
20260506173416 72 110 3.0 11.0 0.00 0.00 0.00 30 1016.4
20260506172916 72 110 2.0 10.0 0.00 0.00 0.00 30 1016.4
20260506172416 71 110 5.0 8.0 0.00 0.00 0.00 30 1016.4
20260506171916 72 110 5.0 10.0 0.00 0.00 0.00 30 1016.4
20260506171416 71 110 5.0 10.0 0.00 0.00 0.00 31 1016.4
20260506170916 71 110 0.0 5.0 0.00 0.00 0.00 31 1016.4
20260506170416 70 110 2.0 4.0 0.00 0.00 0.00 31 1016.5
20260506165916 71 110 2.0 8.0 0.00 0.00 0.00 31 1016.5
20260506165416 70 110 7.0 8.0 0.00 0.00 0.00 32 1016.4
20260506164916 71 110 3.0 7.0 0.00 0.00 0.00 33 1016.4
20260506164416 70 110 3.0 3.0 0.00 0.00 0.00 33 1016.4
20260506163916 69 110 1.0 4.0 0.00 0.00 0.00 33 1016.3
20260506163416 69 110 4.0 7.0 0.00 0.00 0.00 33 1016.4
20260506162917 69 110 3.0 5.0 0.00 0.00 0.00 33 1016.3
20260506162418 70 110 2.0 8.0 0.00 0.00 0.00 33 1016.3
20260506161916 70 110 1.0 5.0 0.00 0.00 0.00 34 1016.3
20260506161416 69 110 2.0 5.0 0.00 0.00 0.00 34 1016.3
20260506160916 69 110 0.0 3.0 0.00 0.00 0.00 34 1016.3
20260506160417 68 110 0.0 5.0 0.00 0.00 0.00 35 1016.3
20260506155917 68 110 1.0 4.0 0.00 0.00 0.00 35 1016.3
20260506155416 68 110 1.0 5.0 0.00 0.00 0.00 35 1016.4
20260506154916 67 110 0.0 4.0 0.00 0.00 0.00 36 1016.4
20260506154416 68 110 0.0 3.0 0.00 0.00 0.00 36 1016.4
20260506153916 67 110 2.0 4.0 0.00 0.00 0.00 37 1016.4
20260506153416 67 110 1.0 3.0 0.00 0.00 0.00 37 1016.4
20260506152916 67 110 2.0 3.0 0.00 0.00 0.00 38 1016.4
20260506152416 66 110 1.0 3.0 0.00 0.00 0.00 37 1016.4
20260506151916 66 110 1.0 3.0 0.00 0.00 0.00 37 1016.4
20260506151416 66 110 0.0 3.0 0.00 0.00 0.00 38 1016.4
20260506150916 65 110 1.0 4.0 0.00 0.00 0.00 39 1016.4
20260506150416 65 110 2.0 4.0 0.00 0.00 0.00 40 1016.4
20260506145916 65 110 3.0 5.0 0.00 0.00 0.00 40 1016.3
20260506145416 65 110 2.0 5.0 0.00 0.00 0.00 40 1016.3
20260506144917 65 110 4.0 5.0 0.00 0.00 0.00 40 1016.3
20260506144417 64 110 4.0 4.0 0.00 0.00 0.00 40 1016.3
20260506143916 64 110 1.0 3.0 0.00 0.00 0.00 40 1016.2
20260506143416 64 110 1.0 7.0 0.00 0.00 0.00 41 1016.2
20260506142916 64 110 3.0 7.0 0.00 0.00 0.00 41 1016.1
20260506142416 63 110 2.0 5.0 0.00 0.00 0.00 42 1016.1
20260506141917 63 110 4.0 5.0 0.00 0.00 0.00 43 1016.1
20260506141416 63 110 2.0 4.0 0.00 0.00 0.00 44 1016.1
20260506140916 62 110 1.0 4.0 0.00 0.00 0.00 45 1016.1
20260506140416 62 110 1.0 3.0 0.00 0.00 0.00 46 1015.9
20260506135916 61 110 1.0 2.0 0.00 0.00 0.00 48 1016.0
20260506135416 60 110 1.0 4.0 0.00 0.01 0.00 51 1015.9
20260506134917 59 110 0.0 1.0 0.00 0.01 0.00 56 1015.8
20260506134416 58 110 0.0 2.0 0.00 0.01 0.00 59 1015.8
20260506133917 56 110 1.0 1.0 0.00 0.01 0.00 64 1015.8
20260506133417 55 110 0.0 0.0 0.00 0.01 0.00 66 1015.8
20260506132916 54 110 0.0 0.0 0.00 0.01 0.00 67 1015.7
20260506132416 53 110 0.0 0.0 0.00 0.01 0.00 68 1015.6
20260506131916 53 110 0.0 0.0 0.00 0.01 0.00 67 1015.5
20260506131416 53 110 0.0 0.0 0.00 0.01 0.00 66 1015.5
20260506130916 53 110 0.0 1.0 0.00 0.01 0.00 65 1015.4
20260506130418 52 110 0.0 3.0 0.00 0.01 0.00 67 1015.3
20260506125916 52 110 0.0 0.0 0.00 0.01 0.00 67 1015.3
20260506125416 52 110 0.0 0.0 0.00 0.01 0.00 67 1015.2
20260506124916 52 110 0.0 0.0 0.00 0.01 0.00 67 1015.2
20260506124416 52 110 0.0 0.0 0.00 0.01 0.00 67 1015.1
20260506123916 52 110 0.0 0.0 0.00 0.01 0.00 67 1015.1
20260506123418 52 110 0.0 0.0 0.00 0.01 0.00 68 1015.1
20260506122917 52 110 0.0 0.0 0.00 0.01 0.00 68 1015.0
20260506122416 52 110 0.0 0.0 0.00 0.01 0.00 68 1015.0
20260506121916 52 110 0.0 0.0 0.00 0.01 0.00 67 1014.9
20260506121416 52 110 0.0 0.0 0.00 0.01 0.00 67 1014.8
20260506120916 52 110 0.0 0.0 0.00 0.01 0.00 68 1014.8
20260506120416 52 110 0.0 0.0 0.00 0.01 0.00 68 1014.8
20260506115922 52 110 0.0 0.0 0.00 0.01 0.00 67 1014.7
20260506115417 53 110 0.0 0.0 0.00 0.01 0.00 66 1014.7
20260506114916 53 110 0.0 0.0 0.00 0.01 0.00 65 1014.7
20260506114417 53 110 0.0 0.0 0.00 0.01 0.00 65 1014.7
20260506113916 53 110 0.0 0.0 0.00 0.01 0.00 65 1014.7
20260506113417 53 110 0.0 0.0 0.00 0.01 0.00 64 1014.7
20260506112918 54 110 0.0 0.0 0.00 0.01 0.00 63 1014.7
20260506112416 54 110 0.0 0.0 0.00 0.01 0.00 63 1014.7
20260506111917 54 110 0.0 0.0 0.00 0.01 0.00 63 1014.6
20260506111416 54 110 0.0 0.0 0.00 0.01 0.00 62 1014.6
20260506110916 54 110 0.0 0.0 0.00 0.01 0.00 61 1014.6
20260506110416 54 110 0.0 0.0 0.00 0.01 0.00 61 1014.6
20260506105917 54 110 0.0 0.0 0.00 0.01 0.00 61 1014.6
20260506105417 55 110 0.0 0.0 0.00 0.01 0.00 60 1014.6
20260506104916 55 110 0.0 0.0 0.00 0.01 0.00 59 1014.5
20260506104417 55 110 0.0 0.0 0.00 0.01 0.00 58 1014.5
20260506103916 55 110 0.0 0.0 0.00 0.01 0.00 58 1014.5
20260506103416 55 110 0.0 0.0 0.00 0.01 0.00 57 1014.5
20260506102916 55 110 0.0 0.0 0.00 0.01 0.00 56 1014.3
20260506102416 55 110 0.0 0.0 0.00 0.01 0.00 57 1014.3
20260506101916 56 110 0.0 0.0 0.00 0.01 0.00 56 1014.4
20260506101417 56 110 0.0 0.0 0.00 0.01 0.00 56 1014.3
20260506100916 56 110 0.0 0.0 0.00 0.01 0.00 56 1014.3
20260506100416 56 110 0.0 0.0 0.00 0.01 0.00 55 1014.2
20260506095916 56 110 0.0 2.0 0.00 0.01 0.00 54 1014.3
20260506095416 57 110 1.0 2.0 0.00 0.01 0.00 53 1014.3
20260506094917 57 110 0.0 1.0 0.00 0.01 0.00 52 1014.3
20260506094416 57 110 0.0 2.0 0.00 0.01 0.00 52 1014.3
20260506093916 57 110 1.0 3.0 0.00 0.01 0.00 51 1014.2
20260506093416 58 110 1.0 2.0 0.00 0.01 0.00 51 1014.2
20260506092916 58 110 1.0 2.0 0.00 0.01 0.00 50 1014.2
20260506092417 58 110 2.0 3.0 0.00 0.01 0.00 50 1014.2
20260506091917 58 110 2.0 2.0 0.00 0.01 0.00 49 1014.2
20260506091416 58 110 2.0 4.0 0.00 0.02 0.00 50 1014.2
20260506090916 58 110 2.0 3.0 0.00 0.02 0.00 50 1014.2
20260506090417 58 110 2.0 3.0 0.00 0.02 0.00 50 1014.1
20260506085916 58 110 2.0 2.0 0.00 0.02 0.00 50 1014.1
20260506085416 58 110 2.0 2.0 0.00 0.03 0.00 49 1014.2
20260506084916 58 110 1.0 2.0 0.00 0.03 0.00 50 1014.1
20260506084416 57 110 0.0 0.0 0.00 0.04 0.00 51 1014.2
20260506083918 58 110 0.0 0.0 0.00 0.04 0.00 50 1014.1
20260506083417 58 110 0.0 0.0 0.00 0.04 0.00 48 1014.2
20260506082916 59 110 0.0 0.0 0.00 0.05 0.00 47 1014.1
20260506082416 59 110 0.0 0.0 0.00 0.06 0.00 46 1014.1
20260506081916 59 110 0.0 0.0 0.00 0.06 0.00 46 1014.2
20260506081416 59 110 0.0 0.0 0.00 0.08 0.00 45 1014.2
20260506080916 59 110 0.0 0.0 0.00 0.08 0.00 46 1014.2
20260506080417 60 110 0.0 0.0 0.00 0.09 0.00 44 1014.2
20260506073416 61 110 2.0 3.0 0.00 0.10 0.00 41 1014.1
20260506072916 61 110 1.0 3.0 0.00 0.10 0.00 41 1014.0
20260506072417 61 110 1.0 2.0 0.00 0.10 0.00 41 1014.0
20260506071916 61 110 2.0 2.0 0.00 0.10 0.00 42 1014.0
20260506071416 61 110 2.0 2.0 0.00 0.10 0.00 43 1014.0
20260506070916 61 110 1.0 2.0 0.00 0.10 0.00 42 1014.0
20260506070417 61 110 0.0 2.0 0.00 0.10 0.00 41 1014.0
20260506062416 60 110 1.0 2.0 0.00 0.10 0.00 43 1013.6
20260506061916 60 110 2.0 2.0 0.00 0.10 0.00 42 1013.7
20260506061416 60 110 0.0 2.0 0.00 0.10 0.00 42 1013.6
20260506060917 61 110 0.0 0.0 0.00 0.10 0.00 44 1013.6
20260506060418 61 110 0.0 0.0 0.00 0.10 0.00 44 1013.6
20260506051416 62 110 0.0 3.0 0.00 0.10 0.00 38 1013.2
20260506050917 62 110 0.0 0.0 0.00 0.10 0.00 38 1013.2
20260506050416 63 110 0.0 1.0 0.00 0.10 0.00 37 1013.2
20260506044916 64 110 0.0 2.0 0.00 0.10 0.00 35 1013.0
20260506044417 64 110 1.0 2.0 0.00 0.10 0.00 35 1013.0
20260506043916 64 110 1.0 2.0 0.00 0.10 0.00 34 1012.9
20260506043416 64 110 1.0 2.0 0.00 0.10 0.00 34 1012.9
20260506042916 65 110 0.0 3.0 0.00 0.10 0.00 34 1012.8
20260506042416 65 110 2.0 4.0 0.00 0.10 0.00 33 1012.8
20260506041916 65 110 2.0 4.0 0.00 0.10 0.00 34 1012.7
20260506041416 65 110 1.0 3.0 0.00 0.10 0.00 33 1012.7
20260506040916 65 110 2.0 3.0 0.00 0.10 0.00 34 1012.6
20260506040416 66 110 1.0 2.0 0.00 0.10 0.00 32 1012.5
20260506035916 67 110 0.0 3.0 0.00 0.10 0.00 31 1012.4
20260506035417 68 110 1.0 3.0 0.00 0.10 0.00 30 1012.3
20260506034916 68 110 3.0 4.0 0.00 0.10 0.00 30 1012.3
20260506034416 68 110 2.0 5.0 0.00 0.10 0.00 30 1012.3
20260506033916 69 110 2.0 5.0 0.00 0.10 0.00 29 1012.2
20260506033416 69 110 1.0 7.0 0.00 0.10 0.00 29 1012.1
20260506032916 69 110 3.0 7.0 0.00 0.10 0.00 28 1012.1
20260506032416 69 110 4.0 8.0 0.00 0.10 0.00 28 1012.0
20260506031916 70 110 4.0 10.0 0.00 0.10 0.00 28 1011.9
20260506031416 70 110 3.0 9.0 0.00 0.10 0.00 28 1011.8
20260506030916 70 110 7.0 9.0 0.00 0.10 0.00 28 1011.8
20260506030416 70 110 7.0 9.0 0.00 0.10 0.00 28 1011.7
20260506025916 70 110 4.0 10.0 0.00 0.10 0.00 28 1011.7
20260506025418 70 110 1.0 7.0 0.00 0.10 0.00 27 1011.6
20260506024916 70 110 2.0 7.0 0.00 0.10 0.00 27 1011.5
20260506024416 70 110 3.0 11.0 0.00 0.10 0.00 27 1011.5
20260506023916 71 110 4.0 10.0 0.00 0.10 0.00 27 1011.4
20260506023416 71 110 5.0 13.0 0.00 0.10 0.00 27 1011.4
20260506022917 71 110 5.0 12.0 0.00 0.10 0.00 27 1011.3
20260506022416 71 110 4.0 10.0 0.00 0.10 0.00 27 1011.2
20260506021916 71 110 3.0 8.0 0.00 0.10 0.00 26 1011.0
20260506021416 71 110 7.0 11.0 0.00 0.10 0.00 26 1011.0
20260506020916 72 110 4.0 13.0 0.00 0.10 0.00 26 1010.9
20260506020416 72 110 5.0 12.0 0.00 0.10 0.00 26 1010.9
20260506015916 72 110 13.0 17.0 0.00 0.10 0.00 27 1010.9
20260506015416 72 110 3.0 10.0 0.00 0.10 0.00 27 1010.8
20260506014916 72 110 3.0 10.0 0.00 0.10 0.00 27 1010.8
20260506014416 73 110 8.0 13.0 0.00 0.10 0.00 27 1010.7
20260506013916 73 110 12.0 19.0 0.00 0.10 0.00 26 1010.7
20260506013416 73 110 4.0 8.0 0.00 0.10 0.00 27 1010.7
20260506012917 72 110 3.0 9.0 0.00 0.10 0.00 27 1010.7
20260506012418 72 110 3.0 8.0 0.00 0.10 0.00 27 1010.6
20260506011917 72 110 5.0 10.0 0.00 0.10 0.00 27 1010.6
20260506011416 72 110 4.0 10.0 0.00 0.10 0.00 27 1010.5
20260506010916 72 110 4.0 12.0 0.00 0.10 0.00 26 1010.6
20260506010416 72 110 5.0 10.0 0.00 0.10 0.00 27 1010.5
20260506005916 73 110 2.0 11.0 0.00 0.10 0.00 26 1010.5
20260506005416 73 110 4.0 7.0 0.00 0.10 0.00 26 1010.5
20260506004916 73 110 5.0 12.0 0.00 0.10 0.00 26 1010.4
20260506004416 73 110 7.0 13.0 0.00 0.10 0.00 26 1010.3
20260506003916 73 110 8.0 13.0 0.00 0.10 0.00 27 1010.3
20260506003416 73 110 5.0 16.0 0.00 0.10 0.00 26 1010.2
20260506002916 73 110 8.0 12.0 0.00 0.10 0.00 25 1010.3
20260506002416 74 110 10.0 16.0 0.00 0.10 0.00 26 1010.3
20260506001917 74 110 8.0 18.0 0.00 0.10 0.00 26 1010.1
20260506001418 75 110 14.0 17.0 0.00 0.10 0.00 25 1010.1
20260506000916 75 110 9.0 13.0 0.00 0.10 0.00 25 1010.0
20260506000416 74 110 8.0 19.0 0.00 0.10 0.00 25 1010.1
20260505235916 75 110 8.0 15.0 0.00 0.10 0.00 25 1010.1
20260505235416 75 110 11.0 21.0 0.00 0.10 0.00 25 1010.1
20260505234916 76 110 13.0 21.0 0.00 0.10 0.00 25 1010.0
20260505234417 75 110 12.0 15.0 0.00 0.10 0.00 26 1009.9
20260505233916 75 110 8.0 13.0 0.00 0.10 0.00 25 1009.9
20260505233416 76 110 11.0 18.0 0.00 0.10 0.00 25 1010.0
20260505232916 76 110 17.0 23.0 0.00 0.10 0.00 26 1009.9
20260505232416 76 110 10.0 23.0 0.00 0.10 0.00 25 1009.9
20260505231916 75 110 8.0 13.0 0.00 0.10 0.00 26 1009.9
20260505231416 76 110 9.0 18.0 0.00 0.10 0.00 25 1010.0
20260505230916 76 110 17.0 17.0 0.00 0.10 0.00 25 1009.9
20260505230416 76 110 9.0 17.0 0.00 0.10 0.00 25 1009.9
20260505225916 77 110 8.0 19.0 0.00 0.10 0.00 26 1009.9
20260505225416 76 110 14.0 16.0 0.00 0.10 0.00 26 1010.0
20260505224916 76 110 19.0 21.0 0.00 0.10 0.00 25 1010.0
20260505224416 77 110 7.0 14.0 0.00 0.10 0.00 26 1010.0
20260505223916 77 110 11.0 18.0 0.00 0.10 0.00 27 1010.1
20260505223416 76 110 9.0 18.0 0.00 0.10 0.00 27 1010.1
20260505222916 75 110 11.0 18.0 0.00 0.10 0.00 29 1010.2
20260505222416 76 110 15.0 16.0 0.00 0.10 0.00 29 1010.2
20260505221916 75 110 9.0 15.0 0.00 0.10 0.00 29 1010.3
20260505221418 75 110 13.0 22.0 0.00 0.10 0.00 29 1010.3
20260505220916 76 110 4.0 15.0 0.00 0.10 0.00 28 1010.2